Location: Nantong Television Tower
(32.0188°N, 120.8512°E)
Time: 00:58:33
(UTC+08:00)

Daily predictions for brighter satellites

Satellite Brightness Start Highest point End
(mag) Time Altitude Azimuth Time Altitude Azimuth Time Altitude Azimuth
Cosmos 2263 Rocket 4.2 02:34:52 23° NE 02:34:52 23° NE 02:36:58 10° NNE
CZ-3 R/B 4.1 02:29:07 52° SSW 02:34:03 57° SSE 02:44:51 10° E
Atlas Centaur 2 3.6 02:52:29 34° E 02:52:29 34° E 02:55:33 10° E
USA 238 DEB 4.2 03:16:34 45° SSE 03:18:07 54° ESE 03:24:52 10° NE
USA 238 4.2 03:16:38 44° SSE 03:18:14 53° ESE 03:24:58 10° NE
BREEZE-M DEB (TANK) 4.1 02:58:07 10° NW 03:18:20 84° NE 03:23:00 10° ESE
MOS 1-B 4.2 03:26:30 10° NNE 03:32:19 86° ESE 03:32:27 85° SSE
ADEOS II 2.1 03:32:51 10° N 03:37:28 69° N 03:37:28 69° N
DELTA 2 R/B (1) 4.4 03:37:33 38° NNW 03:38:23 41° N 03:43:38 10° ENE
OAO 1 Rocket 4.4 03:40:57 76° SE 03:40:57 76° SE 03:46:08 10° ENE
Atlas 2A Centaur Rocket 4.0 03:47:05 44° SW 03:49:40 60° S 04:30:00 10° ESE
H-2A R/B 3.9 02:43:37 10° W 03:49:56 71° SSW 03:55:33 10° ESE
ATLAS 3B R/B 2.7 03:50:43 46° SW 03:53:10 75° WNW 04:00:24 10° NNE
Okean O Rocket 1.7 03:49:08 10° NNE 03:53:28 72° ESE 03:54:14 57° SSE
ATLAS CENTAUR R/B 3.6 03:53:53 10° SSE 03:56:51 21° ESE 03:59:47 10° ENE
Delta 2 Rocket 3.9 03:56:44 63° W 03:57:34 78° NNW 04:03:20 10° ENE
CZ-4B DEB 4.2 03:56:56 10° NNE 04:02:25 80° ESE 04:07:40 11° S
BREEZE-M R/B 4.3 04:03:40 34° NNW 04:03:40 34° NNW 04:09:12 10° NE
Skynet4D Del rocket 4.0 04:03:19 42° SW 04:04:43 52° S 04:10:08 10° ESE
Cosmos 1844 Rocket 2.9 04:01:45 17° S 04:06:05 71° ESE 04:11:44 10° NNE
CZ-4B R/B 3.7 04:03:15 10° N 04:05:52 36° NNW 04:05:52 36° NNW
Cosmos 332 Rocket 3.6 04:03:35 10° NNW 04:08:23 84° WSW 04:13:10 10° SSE
Cosmos 468 Rocket 4.2 04:03:41 10° NNW 04:09:00 72° ENE 04:14:16 10° SSE
Cosmos 1486 Rocket 4.1 04:07:18 13° S 04:12:02 74° ESE 04:17:15 10° NNE
Cosmos 371 Rocket 3.2 04:07:32 10° NNW 04:12:25 89° ENE 04:17:15 10° SSE
Cosmos 2263 Rocket 3.8 04:16:36 18° NW 04:16:36 18° NW 04:19:30 10° NNW
Cosmos 1553 Rocket 4.0 04:12:58 10° S 04:19:07 81° E 04:25:13 10° N
PSLV R/B 4.1 04:19:09 10° N 04:22:42 35° WNW 04:22:42 35° WNW
Cosmos 1763 Rocket 4.2 04:20:21 10° N 04:25:34 56° ENE 04:30:46 10° SSE
CZ-4B R/B 4.0 04:22:16 10° NNE 04:26:17 77° ESE 04:30:28 10° S
Cosmos 1544 Rocket 3.9 04:27:18 10° NNW 04:31:21 39° W 04:35:24 10° SSW
PAYLOAD B 4.4 04:29:10 10° N 04:34:24 47° WNW 04:39:35 10° SW
Cosmos 1455 Rocket 3.5 04:34:54 10° NNW 04:38:51 36° W 04:42:48 10° SSW
Atlas Centaur 2 2.1 04:35:08 24° W 04:38:55 70° S 04:43:53 10° ESE
S3M 3.9 04:33:34 10° S 04:39:47 74° W 04:46:08 10° N
ATLAS 5 CENTAUR R/B 4.2 04:36:15 10° N 04:41:42 33° NE 04:47:32 10° ESE
NOSS 3-2 (A) 3.3 04:37:26 11° SW 04:43:04 73° WNW 04:49:25 10° NNE
Abrixas 2.1 04:46:34 27° SSW 04:47:40 65° SE 04:50:06 10° NE
NOAA 6 4.4 04:46:12 10° NNE 04:51:24 70° ESE 04:56:32 10° S
Cosmos 304 Rocket 4.1 04:49:04 10° NNW 04:53:54 72° ENE 04:58:41 10° SSE
EO 1 Del DPAF 3.7 04:50:20 10° SSE 04:54:06 66° ENE 04:57:54 10° N
Cosmos 1844 3.8 04:49:34 10° SW 04:55:01 56° WNW 05:00:35 10° N
Landsat 4 3.9 04:52:45 10° S 04:56:26 48° W 05:00:09 10° NNW
Cosmos 1515 3.6 04:54:17 10° S 04:58:05 88° W 05:01:55 10° N
Okean-O 2.6 04:55:06 10° NNE 04:59:33 87° W 05:03:58 10° SSW
Cosmos 1666 3.7 04:57:07 10° NW 05:00:12 24° W 05:03:17 10° SW
Tiangong 1 0.5 04:58:39 17° WNW 05:00:32 70° SSW 05:03:11 10° SE
CZ-4B R/B 4.0 04:57:01 10° N 05:01:31 29° WNW 05:06:03 10° SW
GPS 2-05 Rocket1 4.5 05:00:39 14° SW 05:01:42 16° SSW 05:03:41 10° S
Feng Yun 1-1 Rocket 4.2 04:56:44 10° N 05:02:08 81° WNW 05:07:37 10° SSW
MTI 3.7 05:00:57 10° S 05:04:09 67° W 05:07:24 10° NNW
Meteor 2-4 Rocket 4.3 05:01:23 10° SW 05:06:22 34° WNW 05:11:30 10° NNW
Meteor 1-31 Rocket 3.8 05:05:52 10° NNW 05:09:03 25° WNW 05:12:14 10° SW
Cosmos 1386 Rocket 4.4 05:03:50 10° N 05:10:01 81° W 05:16:03 10° S
COSMOS 2455 4.4 05:07:31 10° S 05:13:02 40° ESE 05:18:34 10° NE
Okean 2 3.5 05:09:23 10° SSW 05:13:20 50° W 05:17:19 10° N
CZ-2C R/B 3.8 05:09:06 10° NNE 05:13:30 41° E 05:17:58 10° S
Cosmos 883 Rocket 4.4 05:08:07 10° S 05:14:12 74° W 05:20:21 10° N
Cosmos 1814 Rocket 4.5 05:10:03 10° NW 05:14:47 37° W 05:19:33 10° SSW
GOES 2 Rocket 4.5 05:12:19 10° WSW 05:15:37 22° SSW 05:19:06 10° SSE
ASTRO E2 2.7 05:12:18 11° W 05:16:14 80° S 05:20:16 10° E
PAYLOAD A 4.2 05:11:31 10° NNE 05:16:17 70° ESE 05:20:57 10° S
Meteor 1-4 Rocket 4.2 05:14:57 10° WNW 05:16:36 13° W 05:18:15 10° WSW
ERBS 2.9 05:14:22 10° SSW 05:17:43 59° SE 05:21:07 10° NE
Cosmos 1892 Rocket 3.9 05:14:14 10° S 05:18:37 73° E 05:22:58 10° N
Cosmos 1025 Rocket 3.4 05:14:46 10° SSW 05:18:45 39° W 05:22:46 10° N
Cosmos 1503 Rocket 4.3 05:13:48 10° SW 05:18:57 49° WNW 05:24:10 10° N
USA 116 3.8 05:16:00 10° SSW 05:19:02 33° W 05:21:55 10° NNW
Kosmos-1675 3.7 05:16:44 10° SSW 05:19:25 89° NW 05:27:59 10° NNE
Cosmos 1354 Rocket 4.3 05:15:13 10° SW 05:20:20 48° WNW 05:25:29 10° N
Okean 1-7 Rocket 4.0 05:18:30 10° SSW 05:22:46 42° W 05:27:05 10° N
Cosmos 1709 Rocket 4.3 05:17:03 10° N 05:23:22 76° E 05:29:32 10° S
Cosmos 1238 Rocket 4.4 05:17:11 10° S 05:23:48 72° E 05:29:48 10° N
DELTA 2 R/B (1) 3.7 05:19:38 10° WNW 05:25:15 85° NNE 05:30:50 10° ESE
